[[{"header":{"parameterUnit":"m.s-1","parameterCategory":1,"la1":30.2991,"la2":30.254,"lo1":-89.0895,"lo2":-89.0444,"dx":0.0017,"dy":0.0017,"nx":28,"ny":28,"refTime":"2023-01-13T09:00:00:Z","depth":0,"parameterNumber":2,"parameterNumberName":"U-component_of_WINDS"},"data":[0,0,0,0,0,0,0,0,0,0,0,0,0,0,0,0,0,0,0,0,0,0,0,0,0,0,0,0,0,0,0,0,0,0,0,0,0,0,0,0,0,0,0,0,0,0,0,0,0,0,0,0,0,0,0,0,0,0,2.5577,2.5578,0,2.5593,2.5593,2.5593,2.5556,2.5555,2.5554,2.5553,2.5568,2.557,2.5571,0,0,0,0,0,0,0,0,0,0,0,0,0,2.5517,2.5518,2.5577,2.5578,2.5578,2.5593,2.5593,2.5593,2.5557,2.5555,2.5554,2.5553,2.5568,2.5569,2.5571,0,0,0,0,0,0,0,0,0,0,0,0,0,2.5539,2.5518,2.5577,2.5561,2.556,2.5593,2.5593,2.5593,2.5557,2.5555,2.5553,2.5552,2.5567,2.5569,2.5571,2.562,0,0,2.5578,2.5579,0,0,0,0,0,0,0,0,2.5537,2.5541,2.5564,2.5563,2.5561,2.5571,2.5577,2.5602,2.5557,2.5558,2.5553,2.5551,2.557,2.5572,2.5579,2.5621,2.5621,2.5578,2.558,2.5581,2.5581,0,0,0,0,0,0,0,2.5536,2.554,2.5583,2.5564,2.5562,2.5554,2.5555,2.5582,2.5574,2.5558,2.5555,2.5558,2.5569,2.5577,2.5579,2.5622,2.5578,2.558,2.5582,2.5583,2.5706,2.5707,0,0,0,0,0,0,2.5536,2.5539,2.5583,2.5584,2.5545,2.5556,2.5557,2.557,2.5573,2.5572,2.5559,2.5556,2.5574,2.5576,2.5579,2.5637,2.5581,2.5583,2.5584,2.5704,2.5706,2.5708,0,0,0,0,0,0,2.5535,2.5541,2.5582,2.5561,2.5565,2.5559,2.5573,2.5571,2.5578,2.5574,2.5573,2.5568,2.5573,2.5576,2.5611,2.5637,2.5584,2.5586,2.5701,2.5704,2.5707,2.5753,0,0,0,0,0,0,2.5534,2.5541,2.5559,2.5561,2.5567,2.5613,2.5575,2.5572,2.5582,2.5578,2.5582,2.5581,2.5572,2.5607,2.5613,2.5639,2.5588,2.5699,2.5703,2.5706,2.5749,2.5757,2.5764,0,0,0,0,0,2.5532,2.5571,2.556,2.5565,2.5589,2.5615,2.5618,2.5606,2.5585,2.5603,2.5601,2.5581,2.5634,2.5611,2.5617,2.5645,2.5697,2.5702,2.5706,2.5746,2.5756,2.5764,0,0,0,0,0,0,2.557,2.5571,2.5559,2.56,2.5608,2.5609,2.5631,2.5616,2.563,2.5626,2.561,2.5612,2.5649,2.565,2.5625,2.5693,2.5662,2.5668,2.569,2.57,2.5707,2.5706,2.5589,0,0,0,0,0,2.5584,2.5605,2.5604,2.564,2.5645,2.5638,2.5648,2.5638,2.5646,2.5649,2.5649,2.5657,2.5675,2.5688,2.5704,2.575,2.575,2.5772,2.5779,2.5785,2.579,2.5815,2.5825,2.5722,2.5722,2.5722,0,0,2.5611,2.5614,2.5628,2.5648,2.5653,2.5675,2.564,2.5665,2.5681,2.5652,2.5685,2.5686,2.5694,2.5734,2.5752,2.5736,2.5819,2.5791,2.5796,2.5797,2.5821,2.583,2.5839,2.5725,2.5725,2.5724,0,0,2.5673,2.5677,2.5708,2.5714,2.5723,2.5718,2.5726,2.573,2.5729,2.5762,2.5741,2.576,2.5792,2.5799,2.5806,2.5873,2.5856,2.5879,2.5918,2.5942,2.595,2.5957,2.5982,2.599,2.5884,2.5884,2.5884,0,2.5706,2.5738,2.5726,2.5752,2.5762,2.5738,2.577,2.5776,2.579,2.5797,2.578,2.582,2.5823,2.5866,2.5882,2.5889,2.5897,2.5878,2.595,2.5957,2.5964,2.5986,2.5996,2.5887,2.5887,2.5886,2.5886,0,2.5779,2.5802,2.5826,2.5841,2.5853,2.5882,2.5874,2.5888,2.5878,2.5876,2.591,2.5914,2.5931,2.5941,2.593,2.5982,2.5972,2.5953,2.5921,2.5976,2.5998,2.6006,2.5891,2.589,2.5889,2.5888,0,0,2.5864,2.5872,2.5881,2.5888,2.5897,2.5914,2.5943,2.596,2.5973,2.5984,2.6007,2.6035,2.6018,2.6027,2.6018,2.604,2.6093,2.6018,2.6018,2.6032,2.615,2.6165,2.6175,2.6082,2.6084,2.6085,2.615,0,2.5925,2.5974,2.5964,2.6012,2.6033,2.6012,2.6037,2.6045,2.6044,2.6062,2.6061,2.6081,2.6057,2.6062,2.6083,2.6082,2.6116,2.6077,2.6104,2.6105,2.6102,2.6186,2.62,2.6261,2.6158,2.6159,2.616,0,2.6002,2.6016,2.6067,2.6073,2.6082,2.6104,2.612,2.6138,2.6147,2.6145,2.6156,2.6143,2.6172,2.6141,2.6181,2.6155,2.6165,2.6167,2.6169,2.617,2.6136,2.6189,2.628,2.6289,2.6173,2.6172,2.6171,0,2.6059,2.6091,2.6125,2.6132,2.614,2.6157,2.6161,2.6168,2.618,2.6195,2.6202,2.622,2.6229,2.6243,2.6236,2.6214,2.6277,2.6245,2.6276,2.6276,2.629,2.6289,2.6383,2.6297,2.6297,2.6297,2.6297,0,2.6128,2.6159,2.6151,2.6172,2.6208,2.6197,2.6232,2.6234,2.6241,2.6262,2.6245,2.6266,2.6255,2.6275,2.6269,2.6303,2.6308,2.6307,2.6305,2.6308,2.6308,2.6314,2.631,2.6299,2.6299,2.6298,2.6298,0,2.6197,2.6193,2.6229,2.6234,2.6237,2.6262,2.6267,2.6287,2.6285,2.6313,2.6319,2.6316,2.6339,2.6333,2.6357,2.6354,2.6397,2.639,2.6394,2.6392,2.6423,2.642,2.6524,2.6538,2.6444,2.6444,2.6445,0,2.6241,2.6265,2.6273,2.6287,2.6293,2.6314,2.6326,2.6317,2.6331,2.6345,2.6363,2.6384,2.6401,2.6438,2.6439,2.6458,2.6451,2.6486,2.6453,2.6456,2.6451,2.645,2.6452,2.6492,2.6493,2.6494,2.6495,0,2.6319,2.6317,2.6335,2.6353,2.6369,2.6383,2.6395,2.6407,2.6399,2.6415,2.6439,2.6452,2.6477,2.6499,2.6517,2.6521,2.6507,2.6505,2.6514,2.6517,2.6518,2.6518,2.6411,2.6503,2.6502,2.6501,2.6501,2.6501,2.6377,2.6398,2.6407,2.6429,2.6438,2.645,2.6469,2.6471,2.649,2.6511,2.6504,2.6531,2.6541,2.6564,2.6571,2.6592,2.6579,2.6591,2.6593,2.6596,2.66,2.6516,2.6595,2.6595,2.6595,2.6595,2.6595,0,2.6455,2.646,2.648,2.6499,2.6516,2.6502,2.6515,2.6531,2.6555,2.6565,2.6583,2.661,2.6632,2.6634,2.6655,2.6671,2.6665,2.6677,2.6675,2.6677,2.6611,2.6602,2.6681,2.6681,2.6681,2.6681,2.6681,2.6681,2.6497,2.6532,2.653,2.657,2.6575,2.6601,2.661,2.6622,2.6631,2.6662,2.668,2.6682,2.669,2.6711,2.6731,2.6731,2.6739,2.6753,2.6751,2.669,2.6681,2.6673,2.6664,2.6755,2.6755,2.6815,2.6815,2.6816]},{"header":{"parameterUnit":"m.s-1","parameterCategory":1,"la1":30.2991,"la2":30.254,"lo1":-89.0895,"lo2":-89.0444,"dx":0.0017,"dy":0.0017,"nx":28,"ny":28,"refTime":"2023-01-13T09:00:00:Z","depth":0,"parameterNumber":3,"parameterNumberName":"V-component_of_WINDS"},"data":[0,0,0,0,0,0,0,0,0,0,0,0,0,0,0,0,0,0,0,0,0,0,0,0,0,0,0,0,0,0,0,0,0,0,0,0,0,0,0,0,0,0,0,0,0,0,0,0,0,0,0,0,0,0,0,0,0,0,-7.4681,-7.4683,0,-7.4856,-7.4858,-7.486,-7.4806,-7.4802,-7.4798,-7.4795,-7.4969,-7.4977,-7.4985,0,0,0,0,0,0,0,0,0,0,0,0,0,-7.4295,-7.4303,-7.4681,-7.4683,-7.4685,-7.4856,-7.4858,-7.486,-7.4806,-7.4802,-7.4797,-7.4793,-7.4967,-7.4976,-7.4986,0,0,0,0,0,0,0,0,0,0,0,0,0,-7.4466,-7.4305,-7.468,-7.4679,-7.468,-7.4855,-7.4858,-7.4861,-7.4807,-7.4802,-7.4796,-7.4791,-7.4964,-7.4975,-7.4987,-7.5173,0,0,-7.5024,-7.503,0,0,0,0,0,0,0,0,-7.4456,-7.448,-7.4677,-7.4679,-7.4681,-7.4803,-7.4786,-7.4965,-7.4809,-7.4759,-7.4795,-7.4788,-7.4918,-7.4934,-7.4979,-7.5181,-7.5188,-7.5025,-7.5033,-7.5038,-7.5041,0,0,0,0,0,0,0,-7.4444,-7.4472,-7.475,-7.468,-7.4682,-7.4668,-7.4686,-7.482,-7.4867,-7.4763,-7.4759,-7.4781,-7.4918,-7.4967,-7.4982,-7.5191,-7.5025,-7.5036,-7.5043,-7.5048,-7.5554,-7.556,0,0,0,0,0,0,-7.4432,-7.4462,-7.4744,-7.4755,-7.4553,-7.4679,-7.47,-7.477,-7.4866,-7.4875,-7.4786,-7.4778,-7.4949,-7.4968,-7.4988,-7.5212,-7.5038,-7.5049,-7.5056,-7.5548,-7.5556,-7.5562,0,0,0,0,0,0,-7.4424,-7.4457,-7.4737,-7.4608,-7.4643,-7.4692,-7.4771,-7.4776,-7.4825,-7.4883,-7.4891,-7.4827,-7.4945,-7.4971,-7.5128,-7.5217,-7.5055,-7.5066,-7.5541,-7.555,-7.5559,-7.5661,0,0,0,0,0,0,-7.4413,-7.4455,-7.4527,-7.461,-7.465,-7.4876,-7.4777,-7.4783,-7.4846,-7.4838,-7.4924,-7.4933,-7.4943,-7.511,-7.514,-7.5231,-7.5075,-7.5533,-7.5545,-7.5556,-7.565,-7.5673,-7.5692,0,0,0,0,0,-7.4399,-7.4548,-7.4531,-7.4565,-7.4741,-7.4881,-7.4903,-7.4914,-7.4854,-7.4926,-7.4963,-7.493,-7.5203,-7.5126,-7.516,-7.5256,-7.5527,-7.5542,-7.5555,-7.564,-7.5668,-7.5692,0,0,0,0,0,0,-7.4472,-7.4558,-7.4541,-7.4721,-7.4794,-7.4871,-7.4963,-7.4943,-7.5033,-7.5021,-7.5029,-7.5048,-7.5209,-7.5248,-7.5161,-7.544,-7.5356,-7.5377,-7.541,-7.5436,-7.5457,-7.5444,-7.5085,0,0,0,0,0,-7.4509,-7.4617,-7.4686,-7.4838,-7.4876,-7.4913,-7.4974,-7.4976,-7.5052,-7.5082,-7.5131,-7.5204,-7.5306,-7.5373,-7.547,-7.5655,-7.5673,-7.5738,-7.5759,-7.5776,-7.5794,-7.5894,-7.5924,-7.5608,-7.5608,-7.5607,0,0,-7.4587,-7.4647,-7.4714,-7.4854,-7.4911,-7.5021,-7.494,-7.5059,-7.5141,-7.5099,-7.5251,-7.5289,-7.5371,-7.5543,-7.5621,-7.558,-7.5885,-7.5793,-7.5807,-7.5816,-7.5912,-7.5942,-7.5968,-7.5617,-7.5615,-7.5614,0,0,-7.4785,-7.4841,-7.4975,-7.5034,-7.5122,-7.5146,-7.5178,-7.5259,-7.5283,-7.5435,-7.5407,-7.5503,-7.5679,-7.5738,-7.5792,-7.6013,-7.5985,-7.6044,-7.6154,-7.6252,-7.6277,-7.6299,-7.6378,-7.6407,-7.6062,-7.6062,-7.6062,0,-7.487,-7.5036,-7.5045,-7.5169,-7.523,-7.52,-7.5334,-7.539,-7.5505,-7.5548,-7.5501,-7.5721,-7.5774,-7.596,-7.6014,-7.6058,-7.6094,-7.6034,-7.6273,-7.6296,-7.6316,-7.6392,-7.6421,-7.6069,-7.6068,-7.6067,-7.6067,0,-7.5136,-7.5252,-7.5349,-7.5462,-7.5535,-7.5663,-7.569,-7.5763,-7.5758,-7.5787,-7.5942,-7.6004,-7.6114,-7.6158,-7.6154,-7.6343,-7.6315,-7.6271,-7.6186,-7.6353,-7.6424,-7.6453,-7.6078,-7.6076,-7.6074,-7.6072,0,0,-7.5385,-7.5503,-7.5538,-7.5589,-7.5684,-7.5773,-7.5899,-7.6008,-7.6069,-7.6149,-7.6255,-7.6404,-7.6364,-7.6425,-7.6427,-7.6513,-7.6685,-7.6459,-7.646,-7.6499,-7.6897,-7.693,-7.6963,-7.6667,-7.6672,-7.6677,-7.689,0,-7.5591,-7.5815,-7.5827,-7.603,-7.6137,-7.6109,-7.6218,-7.6288,-7.6318,-7.6411,-7.6443,-7.655,-7.6489,-7.6525,-7.6609,-7.6646,-7.6765,-7.6631,-7.6764,-7.6769,-7.6745,-7.7,-7.7035,-7.7234,-7.6917,-7.6922,-7.6926,0,-7.5862,-7.5952,-7.6166,-7.6246,-7.6291,-7.639,-7.649,-7.6581,-7.6658,-7.6674,-7.6742,-7.6732,-7.686,-7.6771,-7.6947,-7.6856,-7.691,-7.6937,-7.6945,-7.6958,-7.6858,-7.702,-7.7297,-7.7327,-7.6969,-7.6966,-7.6963,0,-7.6023,-7.6197,-7.6348,-7.6392,-7.6489,-7.6559,-7.6602,-7.6675,-7.6739,-7.6827,-7.6868,-7.6969,-7.7024,-7.7101,-7.7118,-7.7052,-7.7294,-7.7206,-7.731,-7.731,-7.7363,-7.7359,-7.7653,-7.7398,-7.7397,-7.7397,-7.7396,0,-7.6252,-7.6384,-7.6421,-7.6514,-7.6661,-7.6673,-7.6817,-7.6855,-7.692,-7.7018,-7.6999,-7.7092,-7.7109,-7.7205,-7.7218,-7.7362,-7.7387,-7.7402,-7.7404,-7.7404,-7.7402,-7.7441,-7.7427,-7.7405,-7.7403,-7.7401,-7.74,0,-7.6457,-7.6487,-7.6649,-7.6728,-7.6751,-7.6856,-7.6922,-7.701,-7.7038,-7.7163,-7.7193,-7.7236,-7.7348,-7.7373,-7.7505,-7.7514,-7.7685,-7.7673,-7.7659,-7.7658,-7.7761,-7.7751,-7.8089,-7.8134,-7.785,-7.7852,-7.7855,0,-7.6601,-7.6702,-7.6792,-7.6858,-7.6905,-7.7011,-7.7077,-7.7092,-7.7161,-7.7258,-7.7334,-7.7444,-7.7534,-7.7713,-7.7755,-7.7856,-7.7847,-7.7959,-7.7862,-7.7859,-7.7849,-7.7843,-7.7853,-7.7977,-7.798,-7.7983,-7.7985,0,-7.6855,-7.6865,-7.6962,-7.7065,-7.7145,-7.7227,-7.7304,-7.7358,-7.7384,-7.7462,-7.7578,-7.7647,-7.7783,-7.7892,-7.7994,-7.8036,-7.8015,-7.8015,-7.8044,-7.8046,-7.8034,-7.8042,-7.771,-7.8007,-7.8005,-7.8003,-7.8002,-7.8001,-7.7034,-7.7123,-7.72,-7.7309,-7.7369,-7.7442,-7.7529,-7.7568,-7.7665,-7.7778,-7.7781,-7.7906,-7.7981,-7.8115,-7.8164,-7.8261,-7.8226,-7.8269,-7.828,-7.829,-7.83,-7.8018,-7.828,-7.8279,-7.8278,-7.8278,-7.8277,0,-7.7287,-7.7336,-7.7436,-7.7546,-7.7631,-7.7605,-7.7689,-7.7762,-7.7873,-7.7945,-7.8034,-7.8166,-7.8272,-7.8323,-7.8427,-7.8495,-7.8488,-7.8522,-7.8518,-7.8528,-7.8325,-7.8289,-7.8526,-7.8526,-7.8526,-7.8526,-7.8526,-7.8526,-7.7429,-7.7578,-7.7597,-7.7775,-7.7822,-7.7947,-7.7997,-7.8064,-7.8121,-7.8271,-7.8359,-7.8392,-7.8455,-7.8564,-7.866,-7.8672,-7.8711,-7.8751,-7.8758,-7.8567,-7.8542,-7.8518,-7.8484,-7.8759,-7.8759,-7.8953,-7.8954,-7.8956]}]]